When you browse on this site, cookies collect data to enhance your experience and personalize the content and advertising you see.
Visit our Privacy Policy to learn more. By continuing to use the site, you agree to this use of cookies and data.
  • In Spain
  • List of Countries
  • For 7 days
  • Water Temperature
  • Satellite Maps
  • Weather Map
  • Weather Widgets
  • user-avatar
    Login

    Hourly Weather Bolshaya Kulga

    Today, 16 January, Wednesday

    Time Temperature Precipitation Wind Pressure Humidity
    00:00 -3°C° 0.1 mm 6 mps 747 mmHg 91%
    01:00 -3°C° 0 mm 6 mps 747 mmHg 91%
    02:00 -3°C° 0 mm 6 mps 747 mmHg 92%
    03:00 -2°C° 0 mm 5 mps 747 mmHg 92%
    04:00 -3°C° 0.1 mm 6 mps 747 mmHg 92%
    05:00 -3°C° 0.1 mm 6 mps 747 mmHg 91%
    06:00 -3°C° 0.1 mm 6 mps 747 mmHg 91%
    07:00 -4°C° 0.1 mm 7 mps 747 mmHg 91%
    08:00 -4°C° 0.1 mm 7 mps 746 mmHg 92%
    09:00 -6°C° 0.1 mm 7 mps 746 mmHg 92%
    10:00 -6°C° 0.6 mm 8 mps 746 mmHg 91%
    11:00 -7°C° 0.6 mm 8 mps 746 mmHg 91%
    12:00 -9°C° 0.6 mm 9 mps 745 mmHg 91%
    13:00 -9°C° 0.6 mm 9 mps 745 mmHg 88%
    14:00 -9°C° 0.6 mm 9 mps 744 mmHg 85%
    15:00 -9°C° 0.6 mm 9 mps 743 mmHg 83%
    16:00 -9°C° 0.7 mm 9 mps 743 mmHg 85%
    17:00 -8°C° 0.7 mm 8 mps 743 mmHg 88%
    18:00 -7°C° 0.7 mm 8 mps 742 mmHg 90%
    19:00 -7°C° 0.8 mm 8 mps 742 mmHg 90%
    20:00 -6°C° 0.8 mm 8 mps 741 mmHg 89%
    21:00 -6°C° 0.8 mm 8 mps 741 mmHg 89%
    22:00 -5°C° 0.2 mm 9 mps 740 mmHg 89%
    23:00 -4°C° 0.2 mm 9 mps 740 mmHg 88%

    Tomorrow, 17 January, Thursday

    Time Temperature Precipitation Wind Pressure Humidity
    00:00 -4°C° 0.2 mm 9 mps 740 mmHg 88%
    01:00 -5°C° 0.2 mm 9 mps 740 mmHg 88%
    02:00 -6°C° 0.2 mm 9 mps 741 mmHg 88%
    03:00 -8°C° 0.2 mm 9 mps 742 mmHg 88%
    04:00 -8°C° 0 mm 8 mps 743 mmHg 89%
    05:00 -9°C° 0 mm 7 mps 744 mmHg 89%
    06:00 -12°C° 0 mm 7 mps 745 mmHg 89%
    07:00 -11°C° 0 mm 6 mps 746 mmHg 90%
    08:00 -12°C° 0 mm 5 mps 748 mmHg 90%
    09:00 -13°C° 0 mm 5 mps 749 mmHg 90%
    10:00 -12°C° 0 mm 4 mps 749 mmHg 91%
    11:00 -12°C° 0 mm 4 mps 749 mmHg 91%
    12:00 -12°C° 0 mm 4 mps 749 mmHg 92%
    13:00 -15°C° 0 mm 4 mps 750 mmHg 93%
    14:00 -15°C° 0 mm 3 mps 750 mmHg 94%
    15:00 -16°C° 0 mm 3 mps 750 mmHg 95%
    16:00 -16°C° 0 mm 4 mps 750 mmHg 95%
    17:00 -16°C° 0 mm 4 mps 751 mmHg 95%
    18:00 -15°C° 0 mm 4 mps 751 mmHg 95%
    19:00 -15°C° 0 mm 4 mps 751 mmHg 94%
    20:00 -15°C° 0 mm 4 mps 751 mmHg 94%
    21:00 -14°C° 0 mm 4 mps 751 mmHg 93%
    22:00 -15°C° 0 mm 4 mps 751 mmHg 93%
    23:00 -15°C° 0 mm 5 mps 751 mmHg 93%

    Day after tomorrow, 18 January, Friday

    Time Temperature Precipitation Wind Pressure Humidity
    00:00 -15°C° 0 mm 5 mps 751 mmHg 93%
    01:00 -15°C° 0 mm 5 mps 750 mmHg 92%
    02:00 -16°C° 0 mm 6 mps 750 mmHg 92%
    03:00 -16°C° 0 mm 6 mps 750 mmHg 91%
    04:00 -16°C° 0 mm 6 mps 749 mmHg 91%
    05:00 -15°C° 0 mm 7 mps 749 mmHg 90%
    06:00 -15°C° 0 mm 7 mps 749 mmHg 89%
    07:00 -13°C° 0.1 mm 7 mps 748 mmHg 89%
    08:00 -12°C° 0.1 mm 7 mps 748 mmHg 88%
    09:00 -11°C° 0.1 mm 7 mps 748 mmHg 87%
    10:00 -11°C° 0.1 mm 7 mps 748 mmHg 88%
    11:00 -9°C° 0.1 mm 7 mps 749 mmHg 88%
    12:00 -8°C° 0.1 mm 7 mps 749 mmHg 88%
    13:00 -8°C° 0 mm 7 mps 749 mmHg 89%
    14:00 -8°C° 0 mm 7 mps 749 mmHg 89%
    15:00 -6°C° 0 mm 6 mps 749 mmHg 90%
    16:00 -7°C° 0 mm 7 mps 748 mmHg 90%
    17:00 -7°C° 0 mm 7 mps 748 mmHg 90%
    18:00 -7°C° 0 mm 7 mps 748 mmHg 91%
    19:00 -7°C° 0 mm 7 mps 748 mmHg 91%
    20:00 -7°C° 0 mm 7 mps 748 mmHg 91%
    21:00 -7°C° 0 mm 7 mps 747 mmHg 91%
    22:00 -7°C° 0 mm 7 mps 747 mmHg 91%
    23:00 -6°C° 0 mm 7 mps 747 mmHg 90%

    19 January, Saturday

    Time Temperature Precipitation Wind Pressure Humidity
    00:00 -6°C° 0 mm 7 mps 747 mmHg 90%
    01:00 -6°C° 0.1 mm 7 mps 747 mmHg 91%
    02:00 -6°C° 0.1 mm 7 mps 747 mmHg 91%
    03:00 -6°C° 0.1 mm 7 mps 747 mmHg 92%
    04:00 -6°C° 0.2 mm 7 mps 746 mmHg 92%
    05:00 -6°C° 0.2 mm 7 mps 746 mmHg 92%
    06:00 -6°C° 0.2 mm 7 mps 746 mmHg 92%
    07:00 -4°C° 0.1 mm 6 mps 746 mmHg 92%
    08:00 -4°C° 0.1 mm 6 mps 746 mmHg 92%
    09:00 -3°C° 0.1 mm 6 mps 746 mmHg 92%
    10:00 -4°C° 0.1 mm 6 mps 746 mmHg 91%
    11:00 -4°C° 0.1 mm 5 mps 746 mmHg 90%
    12:00 -4°C° 0.1 mm 5 mps 746 mmHg 89%
    13:00 -5°C° 0 mm 5 mps 747 mmHg 90%
    14:00 -6°C° 0 mm 5 mps 747 mmHg 90%
    15:00 -7°C° 0 mm 5 mps 747 mmHg 91%
    16:00 -8°C° 0.1 mm 5 mps 747 mmHg 89%
    17:00 -8°C° 0.1 mm 5 mps 748 mmHg 87%
    18:00 -10°C° 0.1 mm 5 mps 748 mmHg 85%
    19:00 -10°C° 0 mm 5 mps 748 mmHg 86%
    20:00 -11°C° 0 mm 5 mps 749 mmHg 88%
    21:00 -11°C° 0 mm 5 mps 749 mmHg 89%
    22:00 -12°C° 0 mm 5 mps 749 mmHg 90%
    23:00 -13°C° 0 mm 5 mps 749 mmHg 91%

    20 January, Sunday

    Time Temperature Precipitation Wind Pressure Humidity
    00:00 -14°C° 0 mm 5 mps 749 mmHg 92%
    01:00 -14°C° 0 mm 5 mps 749 mmHg 93%
    02:00 -14°C° 0 mm 4 mps 749 mmHg 93%
    03:00 -14°C° 0 mm 4 mps 749 mmHg 93%
    04:00 -14°C° 0 mm 5 mps 750 mmHg 93%
    05:00 -13°C° 0 mm 5 mps 750 mmHg 92%
    06:00 -13°C° 0 mm 5 mps 750 mmHg 92%
    07:00 -12°C° 0 mm 5 mps 750 mmHg 91%
    08:00 -12°C° 0 mm 5 mps 750 mmHg 89%
    09:00 -12°C° 0 mm 5 mps 750 mmHg 88%
    10:00 -12°C° 0 mm 6 mps 750 mmHg 87%
    11:00 -12°C° 0 mm 6 mps 750 mmHg 87%
    12:00 -12°C° 0 mm 6 mps 750 mmHg 86%
    13:00 -12°C° 0.1 mm 6 mps 751 mmHg 87%
    14:00 -12°C° 0.1 mm 6 mps 751 mmHg 87%
    15:00 -12°C° 0.1 mm 6 mps 751 mmHg 88%
    16:00 -12°C° 0 mm 6 mps 751 mmHg 88%
    17:00 -12°C° 0 mm 6 mps 752 mmHg 88%
    18:00 -12°C° 0 mm 6 mps 752 mmHg 89%
    19:00 -12°C° 0 mm 6 mps 752 mmHg 89%
    20:00 -14°C° 0 mm 6 mps 753 mmHg 89%
    21:00 -14°C° 0 mm 6 mps 753 mmHg 90%
    22:00 -14°C° 0 mm 5 mps 753 mmHg 91%
    23:00 -14°C° 0 mm 5 mps 754 mmHg 92%

    21 January, Monday

    Time Temperature Precipitation Wind Pressure Humidity
    00:00 -15°C° 0 mm 5 mps 754 mmHg 93%
    01:00 -15°C° 0 mm 5 mps 754 mmHg 93%
    02:00 -16°C° 0 mm 4 mps 755 mmHg 94%
    03:00 -16°C° 0 mm 4 mps 755 mmHg 94%
    04:00 -16°C° 0 mm 4 mps 755 mmHg 95%
    05:00 -16°C° 0 mm 4 mps 756 mmHg 95%
    06:00 -15°C° 0 mm 4 mps 756 mmHg 96%
    07:00 -16°C° 0 mm 4 mps 756 mmHg 96%
    08:00 -16°C° 0 mm 4 mps 756 mmHg 96%
    09:00 -16°C° 0 mm 4 mps 757 mmHg 96%
    10:00 -16°C° 0 mm 4 mps 757 mmHg 96%
    11:00 -15°C° 0 mm 3 mps 757 mmHg 96%
    12:00 -15°C° 0 mm 3 mps 757 mmHg 95%
    13:00 -14°C° 0 mm 3 mps 757 mmHg 95%
    14:00 -14°C° 0 mm 3 mps 757 mmHg 95%
    15:00 -13°C° 0 mm 2 mps 756 mmHg 95%
    16:00 -14°C° 0.2 mm 3 mps 756 mmHg 95%
    17:00 -14°C° 0.2 mm 3 mps 756 mmHg 96%
    18:00 -14°C° 0.2 mm 3 mps 756 mmHg 96%
    19:00 -14°C° 0.3 mm 3 mps 755 mmHg 96%
    20:00 -13°C° 0.3 mm 3 mps 755 mmHg 96%
    21:00 -13°C° 0.3 mm 3 mps 754 mmHg 96%
    22:00 -14°C° 0.3 mm 4 mps 753 mmHg 95%
    23:00 -14°C° 0.3 mm 4 mps 753 mmHg 95%
    Show more